Location: Unspecified
(0.0000°N, 0.0000°E)
Time: 12:03:44
(UTC+00:00)

Vanguard 1 - All Passes

Search period start: 29 July 2016 00:00
Search period end: 08 August 2016 00:00
Orbit: 649 x 3835 km, 34.2° (Epoch: 28 July)

Date Brightness Start Highest point End Pass type
(mag) Time Alt. Az. Time Alt. Az. Time Alt. Az.
29 Jul - 08:20:25 10° NNW 08:27:03 34° NE 08:38:13 10° ESE daylight
29 Jul - 10:39:08 10° WNW 10:49:03 67° SSW 11:07:44 10° SE daylight
29 Jul - 13:03:26 10° WSW 13:16:30 30° SSW 13:34:57 10° SE daylight
29 Jul - 15:35:41 10° SW 15:50:15 20° S 16:05:05 10° SE daylight
29 Jul - 18:07:00 10° SSW 18:24:41 27° SSE 18:37:43 10° ESE visible
29 Jul - 20:34:19 10° SW 20:52:55 58° SSE 21:03:02 10° ENE visible
29 Jul - 23:03:02 10° WSW 23:15:27 43° NW 23:22:24 10° NNE visible
30 Jul - 08:40:47 10° NNW 08:47:55 51° NE 09:01:02 10° ESE daylight
30 Jul - 11:00:37 10° WNW 11:10:52 52° SSW 11:29:17 10° SE daylight
30 Jul - 13:26:41 10° WSW 13:39:39 25° SSW 13:56:47 10° SSE daylight
30 Jul - 15:59:20 10° SW 16:14:27 20° S 16:28:59 10° SE daylight
30 Jul - 18:28:42 10° SW 18:47:40 33° SSE 19:00:45 10° E visible
30 Jul - 20:55:57 10° SW 21:14:37 75° SE 21:24:24 10° ENE visible
30 Jul - 23:26:07 10° W 23:36:18 29° NW 23:42:38 10° NNE visible
31 Jul - 06:47:22 10° NNE 06:48:33 10° NE 06:49:49 10° NE daylight
31 Jul - 09:01:25 10° NW 09:08:53 73° NE 09:23:20 10° ESE daylight
31 Jul - 11:22:29 10° W 11:32:58 40° SSW 11:50:43 10° SE daylight
31 Jul - 13:50:21 10° SW 14:03:10 22° S 14:19:04 10° SSE daylight
31 Jul - 16:22:18 10° SSW 16:38:31 22° S 16:53:13 10° SE daylight
31 Jul - 18:50:12 10° SW 19:10:19 40° SSE 19:23:18 10° E visible
31 Jul - 21:17:49 10° SW 21:36:01 84° NW 21:45:28 10° NE visible
31 Jul - 23:50:02 10° W 23:57:14 19° NW 00:02:21 10° N visible
01 Aug - 07:05:15 10° N 07:09:32 19° NE 07:15:26 10° E daylight
01 Aug - 09:22:19 10° WNW 09:30:06 82° SW 09:45:15 10° SE daylight
01 Aug - 11:44:45 10° W 11:55:23 32° SSW 12:12:10 10° SE daylight
01 Aug - 14:14:11 10° SW 14:27:02 20° S 14:42:04 10° SE daylight
01 Aug - 16:44:37 10° SSW 17:02:16 25° SSE 17:17:20 10° ESE daylight
01 Aug - 19:11:40 10° SW 19:32:39 51° SSE 19:45:23 10° ENE visible
01 Aug - 21:40:02 10° WSW 21:57:12 64° NW 22:06:16 10° NE visible
02 Aug - 00:15:54 10° WNW 00:18:22 11° NW 00:20:32 10° NNW night (unlit)
02 Aug - 07:25:02 10° NNW 07:30:22 31° NE 07:38:48 10° ESE daylight
02 Aug - 09:43:32 10° WNW 09:51:34 60° SSW 10:06:52 10° SE daylight
02 Aug - 12:07:30 10° WSW 12:18:06 26° SSW 12:33:43 10° SSE daylight
02 Aug - 14:37:49 10° SW 14:51:07 19° S 15:05:53 10° SE daylight
02 Aug - 17:06:27 10° SSW 17:25:38 30° SSE 17:41:01 10° ESE daylight
02 Aug - 19:33:11 10° SW 19:54:41 64° SSE 20:07:05 10° ENE visible
02 Aug - 22:02:42 10° WSW 22:18:13 46° NW 22:26:50 10° NNE visible
03 Aug - 07:45:20 10° NNW 07:51:11 49° NE 08:01:24 10° ESE daylight
03 Aug - 10:05:05 10° W 10:13:20 45° SSW 10:28:17 10° SE daylight
03 Aug - 12:30:41 10° WSW 12:41:10 22° SSW 12:55:34 10° SSE daylight
03 Aug - 15:00:54 10° SSW 15:15:14 20° S 15:30:24 10° SE daylight
03 Aug - 17:28:00 10° SW 17:48:37 36° SSE 18:04:10 10° E daylight
03 Aug - 19:54:52 10° SW 20:16:25 80° SE 20:28:27 10° ENE visible
03 Aug - 22:25:57 10° W 22:39:11 33° NW 22:47:08 10° NNE visible
04 Aug - 08:05:59 10° NW 08:12:07 75° NE 08:23:30 10° ESE daylight
04 Aug - 10:26:59 10° W 10:35:23 34° SSW 10:49:33 10° SE daylight
04 Aug - 12:54:13 10° SW 13:04:35 19° S 13:18:01 10° SSE daylight
04 Aug - 15:23:19 10° SSW 15:39:12 23° SSE 15:55:08 10° ESE daylight
04 Aug - 17:49:25 10° SW 18:11:16 45° SSE 18:26:47 10° E daylight
04 Aug - 20:16:48 10° SW 20:37:55 82° NW 20:49:32 10° NE visible
04 Aug - 22:49:58 10° W 23:00:15 23° NW 23:07:06 10° N visible
05 Aug - 06:10:03 10° N 06:13:11 15° NE 06:17:04 10° ENE daylight
05 Aug - 08:26:56 10° WNW 08:33:17 74° SW 08:45:12 10° SE daylight
05 Aug - 10:49:21 10° WSW 10:57:43 26° SSW 11:10:49 10° SSE daylight
05 Aug - 13:17:45 10° SW 13:28:18 18° S 13:41:20 10° SE daylight
05 Aug - 15:45:13 10° SSW 16:02:50 26° SSE 16:19:37 10° ESE daylight
05 Aug - 18:10:49 10° SW 18:33:35 55° SSE 18:48:56 10° ENE visible
05 Aug - 20:39:05 10° WSW 20:59:12 64° NW 21:10:23 10° NE visible
05 Aug - 23:15:10 10° WNW 23:21:31 15° NW 23:26:24 10° N visible
06 Aug - 06:29:40 10° NNW 06:34:02 27° NE 06:40:19 10° E daylight
06 Aug - 08:48:13 10° WNW 08:54:43 51° SSW 09:06:36 10° SE daylight
06 Aug - 11:12:12 10° WSW 11:20:21 21° SSW 11:32:10 10° SSE daylight
06 Aug - 13:40:53 10° SSW 13:52:13 18° S 14:05:42 10° SE daylight
06 Aug - 16:06:45 10° SSW 16:26:06 32° SSE 16:43:34 10° E daylight
06 Aug - 18:32:18 10° SW 18:55:38 68° SE 19:10:40 10° ENE visible
06 Aug - 21:01:50 10° WSW 21:20:22 49° NW 21:31:00 10° NNE visible
07 Aug - 06:49:57 10° NNW 06:54:51 47° NE 07:02:42 10° ESE daylight
07 Aug - 09:09:51 10° W 09:16:26 36° SSW 09:27:46 10° SE daylight
07 Aug - 11:35:29 10° SW 11:43:17 17° S 11:53:51 10° SSE daylight
07 Aug - 14:03:22 10° SSW 14:16:08 19° SSE 14:30:49 10° SE daylight
07 Aug - 16:28:05 10° SW 16:48:59 39° SSE 17:06:53 10° E daylight
07 Aug - 18:53:57 10° SW 19:17:27 83° SE 19:32:05 10° NE visible
07 Aug - 21:25:11 10° WSW 21:41:31 36° NW 21:51:25 10° NNE visible
